Location: Larch Mountain
(45.5297°N, 122.0872°W)
Time: 10:28:34
(UTC-07:00)

ISS - All Passes

Search period start: 20 April 2014 00:00
Search period end: 30 April 2014 00:00
Orbit: 413 x 419 km, 51.6° (Epoch: 20 April)

Date Brightness Start Highest point End Pass type
(mag) Time Alt. Az. Time Alt. Az. Time Alt. Az.
20 Apr - 15:07:10 10° SSW 15:09:58 25° SE 15:12:47 10° E daylight
20 Apr - 16:43:12 10° WSW 16:46:31 58° NNW 16:49:51 10° ENE daylight
20 Apr - 18:20:44 10° WNW 18:23:42 28° N 18:26:40 10° ENE daylight
20 Apr - 19:57:50 10° NW 20:01:00 38° NNE 20:04:11 10° E daylight
20 Apr - 21:34:34 10° WNW 21:37:51 51° SW 21:41:06 10° SE visible
21 Apr - 14:19:33 10° S 14:21:37 16° SE 14:23:41 10° E daylight
21 Apr - 15:54:36 10° WSW 15:57:57 86° NNW 16:01:19 10° ENE daylight
21 Apr - 17:31:59 10° WNW 17:35:00 30° N 17:38:02 10° NE daylight
21 Apr - 19:09:16 10° NW 19:12:20 32° N 19:15:23 10° ENE daylight
21 Apr - 20:45:57 10° WNW 20:49:20 83° SSW 20:52:41 10° ESE visible
21 Apr - 22:23:55 10° WSW 22:25:35 13° SW 22:27:15 10° SSW visible
22 Apr - 15:06:04 10° SW 15:09:21 61° SSE 15:12:40 10° ENE daylight
22 Apr - 16:43:07 10° W 16:46:15 35° NNW 16:49:22 10° NE daylight
22 Apr - 18:20:35 10° WNW 18:23:33 28° N 18:26:32 10° ENE daylight
22 Apr - 19:57:20 10° WNW 20:00:41 66° NNE 20:04:01 10° ESE daylight
22 Apr - 21:34:32 10° W 21:37:09 21° SW 21:39:46 10° S visible
23 Apr - 14:17:39 10° SSW 14:20:45 37° SE 14:23:52 10° ENE daylight
23 Apr - 15:54:13 10° W 15:57:27 45° NNW 16:00:42 10° NE daylight
23 Apr - 17:31:46 10° WNW 17:34:42 27° N 17:37:38 10° ENE daylight
23 Apr - 19:08:40 10° NW 19:11:56 47° NNE 19:15:11 10° E daylight
23 Apr - 20:45:31 10° WNW 20:48:36 34° SW 20:51:40 10° SSE visible
24 Apr - 13:29:27 10° SSW 13:32:08 23° SE 13:34:50 10° E daylight
24 Apr - 15:05:19 10° WSW 15:08:38 62° NNW 15:11:57 10° ENE daylight
24 Apr - 16:42:49 10° WNW 16:45:46 28° N 16:48:44 10° ENE daylight
24 Apr - 18:19:55 10° NW 18:23:04 36° NNE 18:26:12 10° E daylight
24 Apr - 19:56:37 10° WNW 19:59:55 56° SW 20:03:11 10° SE daylight
25 Apr - 12:41:39 10° SSE 12:43:30 14° SE 12:45:22 10° E daylight
25 Apr - 14:16:27 10° WSW 14:19:47 88° SSE 14:23:08 10° ENE daylight
25 Apr - 15:53:45 10° WNW 15:56:47 31° N 15:59:49 10° NE daylight
25 Apr - 17:31:04 10° NW 17:34:05 31° N 17:37:07 10° ENE daylight
25 Apr - 19:07:44 10° WNW 19:11:06 89° SSW 19:14:27 10° ESE daylight
25 Apr - 20:45:29 10° W 20:47:23 14° SW 20:49:16 10° SSW visible
26 Apr - 13:27:39 10° SW 13:30:55 55° SE 13:34:12 10° ENE daylight
26 Apr - 15:04:37 10° W 15:07:45 37° NNW 15:10:53 10° NE daylight
26 Apr - 16:42:05 10° WNW 16:45:02 28° N 16:47:59 10° ENE daylight
26 Apr - 18:18:50 10° WNW 18:22:10 61° NNE 18:25:28 10° ESE daylight
26 Apr - 19:55:55 10° W 19:58:39 23° SW 20:01:22 10° SSE daylight
27 Apr - 12:39:00 10° SSW 12:42:02 33° SE 12:45:05 10° ENE daylight
27 Apr - 14:15:26 10° W 14:18:40 47° NNW 14:21:55 10° NE daylight
27 Apr - 15:52:57 10° WNW 15:55:53 27° N 15:58:48 10° ENE daylight
27 Apr - 17:29:53 10° NW 17:33:06 44° NNE 17:36:20 10° E daylight
27 Apr - 19:06:40 10° WNW 19:09:47 38° SW 19:12:54 10° SSE daylight
28 Apr - 11:50:35 10° S 11:53:08 21° SE 11:55:42 10° E daylight
28 Apr - 13:26:15 10° WSW 13:29:34 67° NNW 13:32:54 10° ENE daylight
28 Apr - 15:03:42 10° WNW 15:06:40 28° N 15:09:37 10° NE daylight
28 Apr - 16:40:50 10° NW 16:43:57 35° NNE 16:47:03 10° E daylight
28 Apr - 18:17:30 10° WNW 18:20:48 62° SSW 18:24:06 10° SE daylight
29 Apr - 11:02:43 10° SSE 11:04:14 13° SE 11:05:45 10° ESE daylight
29 Apr - 12:37:07 10° SW 12:40:27 80° SSE 12:43:47 10° ENE daylight
29 Apr - 14:14:21 10° WNW 14:17:23 32° NNW 14:20:26 10° NE daylight
29 Apr - 15:51:41 10° NW 15:54:41 30° N 15:57:40 10° ENE daylight
29 Apr - 17:28:21 10° WNW 17:31:42 83° NNE 17:35:02 10° ESE daylight
29 Apr - 19:05:52 10° W 19:08:00 16° SW 19:10:08 10° S daylight
